Home   Weather   Gran   Past weeks

Flag for Norway Past Weather in Gran, Norway — Yesterday and Last 2 Weeks

Now
54 °F

Clear.


Feels Like: 53 °F
Forecast: 49 / 56 °F
Wind: 5 mph from Southeast

Location: Oslo Gardermoen Airport

Current Time: Aug 17, 2017 at 2:01:51 am

Latest Report: Aug 17, 2017 at 1:20 am


Visibility: 10 mi

Pressure: 30.04 "Hg

Humidity: 94%

Dew Point: 52 °F

Location of GranLocation

Past Weather in Gran — Graph

°F

Gran Temperature Yesterday

Maximum temperature yesterday: 70 °F (at 4:20 pm)
Minimum temperature yesterday: 55 °F (at 12:20 am)
Average temperature yesterday: 61 °F

High & Low Weather Summary for the Past Weeks

 TemperatureHumidityPressure
High72 °F (Aug 11, 3:20 pm)100% (Aug 5, 6:20 am)30.15 "Hg (Aug 5, 6:20 am)
Low43 °F (Aug 14, 5:50 am)26% (Aug 13, 5:50 pm)29.36 "Hg (Aug 4, 1:20 pm)
Average58 °F74%29.82 "Hg
* Reported Aug 2 12:20 am — Aug 17 12:20 am, Gran. Weather by CustomWeather, © 2017

Note: Actual official high and low records may vary slightly from our data, if they occured in-between our weather recording intervals... More about our weather records

Advertising

Gran Weather History for the Previous 24 Hours

Scroll right to see more
 ConditionsComfort  
Time TempWeatherWind HumidityBarometerVisibility
12:20 am
Thu, Aug 17
55 °FPassing clouds.5 mph82%30.04 "HgN/A
11:50 pm
Wed, Aug 16
55 °FClear.6 mph82%30.04 "Hg10 mi
11:20 pm57 °FPassing clouds.6 mph77%30.01 "HgN/A
10:50 pm57 °FPassing clouds.6 mph77%30.01 "HgN/A
10:20 pm59 °FClear.8 mph72%30.01 "Hg10 mi
9:50 pm61 °FClear.9 mph68%30.01 "Hg10 mi
9:20 pm61 °FClear.10 mph68%30.01 "Hg10 mi
8:50 pm63 °FSunny.10 mph59%30.01 "Hg10 mi
8:20 pm64 °FSunny.9 mph52%29.98 "Hg10 mi
7:50 pm66 °FSunny.8 mph49%29.98 "Hg10 mi
7:20 pm66 °FSunny.10 mph49%29.98 "Hg10 mi
6:50 pm68 °FPassing clouds.9 mph43%29.98 "HgN/A
6:20 pm70 °FSunny.9 mph43%29.98 "Hg10 mi
5:50 pm68 °FSunny.10 mph46%29.98 "Hg10 mi
5:20 pm70 °FPassing clouds.9 mph40%29.98 "HgN/A
4:50 pm70 °FPassing clouds.7 mph33%29.95 "HgN/A
4:20 pm70 °FSunny.8 mph35%29.95 "Hg10 mi
3:20 pm68 °FPassing clouds.10 mph40%29.95 "HgN/A
2:50 pm68 °FPassing clouds.8 mph40%29.95 "HgN/A
2:20 pm68 °FPassing clouds.8 mph40%29.95 "HgN/A
1:50 pm66 °FPassing clouds.8 mph40%29.95 "HgN/A
1:20 pm66 °FPassing clouds.8 mph46%29.95 "HgN/A
12:20 pm64 °FScattered clouds.3 mph64%29.92 "HgN/A
11:50 am64 °FScattered clouds.3 mph68%29.92 "HgN/A
10:50 am61 °FScattered clouds.6 mph77%29.92 "HgN/A
10:20 am61 °FScattered clouds.5 mph77%29.89 "HgN/A
9:50 am61 °FScattered clouds.7 mph83%29.89 "HgN/A
9:20 am61 °FScattered clouds.6 mph83%29.89 "HgN/A
8:50 am57 °FBroken clouds.3 mph88%29.89 "HgN/A
8:20 am57 °FScattered showers. Broken clouds.2 mph94%29.86 "HgN/A
7:50 am57 °FScattered showers. Broken clouds.1 mph94%29.86 "HgN/A
7:20 am55 °FScattered showers. Partly sunny.2 mph100%29.86 "HgN/A
6:50 am55 °FFog.No wind94%29.86 "HgN/A
6:20 am55 °FBroken clouds.2 mph94%29.86 "HgN/A
5:50 am55 °FHeavy rain. Fog.3 mph94%29.86 "Hg2 mi
5:20 am55 °FMostly cloudy.1 mph94%29.86 "HgN/A
4:50 am55 °FLow clouds.5 mph94%29.86 "HgN/A
4:20 am55 °FLight rain. Overcast.5 mph94%29.86 "HgN/A
3:50 am55 °FLight rain. Overcast.5 mph94%29.86 "HgN/A
3:20 am55 °FRain. Passing clouds.2 mph94%29.86 "Hg6 mi
2:50 am55 °FRain. Low clouds.7 mph94%29.89 "Hg4 mi
2:20 am55 °FRain. Low clouds.5 mph94%29.89 "Hg5 mi
Weather by CustomWeather, © 2017

See weather overviewHow to use our weather pages